Regional Weather Roundup
Issued by NWS

Home | Current Version | Previous Version | Text Only | Print | Product List | Glossary On
Versions: 1 2 3 4 5 6 7 8 9 10 11 12 13 14 15 16 17 18 19 20 21 22 23 24 25 26 27 28 29 30 31 32 33 34 35 36 37 38 39 40 41 42 43 44 45 46 47 48 49 50
000
ASUS43 KMPX 130610
RWRMN
WEATHER ROUNDUP FOR MINNESOTA
NATIONAL WEATHER SERVICE TWIN CITIES/CHANHASSEN MN
1200 AM CST FRI DEC 13 2019


NOTE: "FAIR" INDICATES FEW OR NO CLOUDS BELOW 12,000 FEET WITH NO
SIGNIFICANT WEATHER AND/OR OBSTRUCTIONS TO VISIBILITY. N/A MEANS
CURRENT SKY AND/OR WEATHER CONDITIONS ARE NOT AVAILABLE.

MNZ060>063-068>070-130700-
   Twin Cities Metro

CITY           SKY/WX    TMP DP  RH WIND       PRES   REMARKS
TWIN CITIES    CLOUDY    17  10  74 NW5       30.02F WCI  10
6HR MIN TEMP:  17; 6HR MAX TEMP:  18;

ST PAUL        CLOUDY    17  10  74 NW5       30.04F WCI  10
CRYSTAL        CLOUDY    17  10  74 CALM      30.02F
BLAINE         CLOUDY    18  12  79 CALM      30.02S
LAKEVILLE        N/A      9   9 100 CALM      30.02S
EDEN PRAIRIE   FAIR      14   8  77 CALM      30.02S
6HR MIN TEMP:  14; 6HR MAX TEMP:  17;

SOUTH ST PAUL  CLOUDY    18  12  79 CALM      30.03S
LAKE ELMO      CLOUDY    18  14  86 CALM      30.02F
$$
MNZ001>005-007-008-013>017-022>024-027-028-130700-
   Northwest Minnesota

CITY           SKY/WX    TMP DP  RH WIND       PRES   REMARKS
BEMIDJI        FLURRIES   8   5  87 CALM      29.99F
HALLOCK        CLOUDY     9   3  78 SE8       30.00F WCI  -4
ROSEAU         FAIR       7   0  72 SE6       30.01F WCI  -3
WARROAD        FAIR       7   1  78 SE3       30.02F
THIEF RVR FALL CLOUDY     8   4  83 SE9       30.00F WCI  -5
CROOKSTON      FLURRIES   9   5  85 CALM      30.02S
FOSSTON        CLOUDY     9   5  85 SE7       29.98F WCI  -3
DETROIT LAKES  CLOUDY    10   9  92 S5        29.98S WCI   2
PARK RAPIDS    CLOUDY    12   8  84 CALM      29.97F
MAHNOMEN       CLOUDY    12   8  84 SE3       29.97F
$$
MNZ006-009>011-018-025>026-130700-
   North Central Minnesota

CITY           SKY/WX    TMP DP  RH WIND       PRES   REMARKS
BAUDETTE       CLOUDY     7  -1  70 SE7       30.02F WCI  -5
FLAG ISLAND      N/A      5  -2  72 E5        30.02F WCI  -4
INTL FALLS     LGT SNOW   9   3  77 E5        30.03F WCI   1
6HR MIN TEMP:   4; 6HR MAX TEMP:   9; 6HR PCP: TRACE;

WASKISH        FLURRIES   1  -2  85 E3        30.01F
BIG FORK       CLOUDY    10   7  85 CALM      30.05F
LONGVILLE      CLOUDY    12   9  85 CALM      30.00F
GRAND RAPIDS   CLOUDY    13   9  84 CALM      30.01F
CRANE LAKE     LGT SNOW   9   5  85 CALM      30.07F
ORR            LGT SNOW   9   5  85 CALM      30.00F
COOK           LGT SNOW  10   9  92 CALM      30.01F
WALKER         CLOUDY     9   6  87 CALM      29.99F
$$
MNZ012-019>021-037-130700-
   Northeast Minnesota

CITY           SKY/WX    TMP DP  RH WIND       PRES   REMARKS
DULUTH         FLURRIES  18  15  88 N6        29.98F WCI  10
6HR MIN TEMP:  18; 6HR MAX TEMP:  20; 6HR PCP: TRACE;

ELY            LGT SNOW   9   5  85 CALM      30.02F
HIBBING        CLOUDY    13   9  84 CALM      30.00F FOG
EVELETH        FLURRIES  13  11  89 NE6       30.01F WCI   4
TWO HARBORS    CLOUDY    19  12  73 N3        30.00S
SILVER BAY     CLOUDY    18  14  86 N6        30.01R WCI   9
GRAND MARAIS     N/A     20  13  74 NE12G22   30.06F WCI   8
G MARAIS ARPRT LGT SNOW  10   7  85 N8        29.97F WCI  -1
$$
MNZ029>031-032-039>041-046>048-054>057-064-130700-
   West Central Minnesota

CITY           SKY/WX    TMP DP  RH WIND       PRES   REMARKS
FERGUS FALLS   FAIR       9   3  78 CALM      30.03R
MORRIS         CLOUDY    10   7  85 CALM      29.95F
ALEXANDRIA     CLOUDY    11   6  81 CALM      29.97F
ELBOW LAKE     MOCLDY     7   5  92 CALM      30.00S
WADENA         MOCLDY     9   7  92 CALM      29.97F
GLENWOOD       CLOUDY    10   9  92 CALM      29.99S
APPLETON       CLOUDY    12   7  79 CALM      30.01F
BENSON         CLOUDY     9   7  92 CALM      30.02S
ORTONVILLE     CLOUDY    10   7  85 CALM      30.00F
MADISON        CLOUDY    14   9  79 CALM      30.02F
WILLMAR        CLOUDY    12   9  85 CALM      30.03F
$$
MNZ033>034-036-042>043-049>051-058-059-130700-
   Central Minnesota

CITY           SKY/WX    TMP DP  RH WIND       PRES   REMARKS
ST CLOUD       CLOUDY    14   8  77 CALM      30.01F
6HR MIN TEMP:  14; 6HR MAX TEMP:  14;

SAUK CENTRE      N/A     10   7  85 CALM      30.00S
PAYNESVILLE    CLOUDY    13  10  87 CALM      30.00F
AITKIN         CLOUDY    14  10  85 NE3       29.98F
PINE RIVER     CLOUDY    12   9  85 CALM      30.02F
BRAINERD       CLOUDY    17  10  74 CALM      29.99F
STAPLES        CLOUDY     9   7  92 CALM      29.99S
LONG PRAIRIE     N/A      7   5  92 CALM      30.00S
LITTLE FALLS   CLOUDY     9   7  92 CALM      30.01S
CAMP RIPLEY    CLOUDY    13   9  85 CALM      30.00F
LITCHFIELD       N/A     16  10  79 CALM      30.01F
BUFFALO        CLOUDY    15  10  80 MISG      30.03F
MAPLE LAKE       N/A     15  11  85 CALM      30.02F
HUTCHINSON     PTCLDY     8   6  91 CALM      30.02F
$$
MNZ037-044-045-052-053-130700-
   East Central Minnesota

CITY           SKY/WX    TMP DP  RH WIND       PRES   REMARKS
PRINCETON      CLOUDY    16  10  79 CALM      30.01F
MORA           CLOUDY     7   5  92 CALM      30.03F
CAMBRIDGE      CLOUDY    16   9  73 CALM      30.03S
RUSH CITY      FAIR       7   5  91 CALM      30.03S
MOOSE LAKE     CLOUDY    18  14  86 CALM      29.99S
HINCKLEY       CLOUDY    14  12  92 CALM      30.01F
CLOQUET        CLOUDY    18  12  79 N6        29.99F WCI   9
MCGREGOR       CLOUDY    18  14  86 NE3       30.00F
$$
MNZ071>073-080-081-089-090-097-098-130700-
   Southwest Minnesota

CITY           SKY/WX    TMP DP  RH WIND       PRES   REMARKS
MONTEVIDEO     CLOUDY    10   7  85 CALM      30.02S
GRANITE FALLS  CLOUDY     9   6  87 CALM      30.04S
CANBY          CLOUDY    14   9  79 SE3       30.01F
MARSHALL       MOCLDY     5   2  87 SE3       30.01F
REDWOOD FALLS  CLEAR      6   2  83 CALM      30.02F
PIPESTONE      CLEAR     16  12  86 MISG      29.95F
WINDOM         CLEAR      3   1  92 CALM      29.99F
WORTHINGTON    FLURRIES  12   9  87 S7        29.99F WCI   1
TRACY          CLEAR      7   5  92 SW3       30.00S
SLAYTON        CLOUDY    12   8  84 S3        29.98F FOG
$$
MNZ065>067-074>077-082>085-091>093-130700-
   South Central Minnesota

CITY           SKY/WX    TMP DP  RH WIND       PRES   REMARKS
MANKATO        FAIR       7   5  91 W5        30.03F WCI  -2
NEW ULM        CLEAR      1  -2  85 W5        30.03S WCI  -8
FAIRMONT       CLEAR      7   4  87 NW5       30.03F WCI  -2
FARIBAULT      FAIR       5   3  92 CALM      30.02S
OWATONNA       FAIR       7   3  85 CALM      30.01S
WASECA         FAIR       5   1  85 CALM      30.03S FOG
ALBERT LEA     FAIR       9   9 100 CALM      30.01S FOG
$$
MNZ078>079-086>088-094>096-130700-
   Southeast Minnesota

CITY           SKY/WX    TMP DP  RH WIND       PRES   REMARKS
ROCHESTER      CLOUDY    13  10  88 W5        29.99F FOG     WCI   5
6HR MIN TEMP:  12; 6HR MAX TEMP:  18;

RED WING       FAIR      12  10  92 CALM      30.03S
STANTON        CLOUDY    10   8  89 SW5       30.01F WCI   2
DODGE CENTER   FAIR       7   5  92 CALM      29.99F FOG
WINONA         CLOUDY    21  18  86 NW5       30.04F WCI  15
AUSTIN         CLOUDY    16  12  86 CALM      30.00F
PRESTON        MOCLDY    17  14  86 NW3       30.00S FOG
$$
ABBREVIATIONS USED IN REMARKS
   TC - TEMPERATURES IN CELSIUS
  WCI - WIND CHILL INDEX
   HX - HEAT INDEX
  VSB - VISIBILITY
$$



USA.gov is the U.S. government's official web portal to all federal, state and local government web resources and services.